TV
NORAD ID: 25954
Int'l Code: 1999-060A
Perigee: 35,781.6 km
Apogee: 35,805.7 km
Inclination: 0.1 °
Period: 1,436.1 minutes
Semi major axis: 42164 km
Launch date: November 13, 1999
Source: (SES)
Comments: Broadcasting, cable, internet; CONUS, Canada, Mexico, Caribbean, Central America, South America; 28 Ku- and 24 C-band
Two Line Element Set (TLE):
1 25954U 99060A 13165.29559270 -.00000270 00000-0 10000-3 0 5770
2 25954 000.0557 065.4606 0002857 009.0482 227.6662 01.00271969 49847
Source: AFSPC
NASA's NSSDC Master Catalog entry for AMC-4 (GE-4)